Погода в Лёвихе

Россия / Свердловская область     57°35′16″N   59°54′06″E
темп.,
°C
ветер,
м/с
пор.,
м/с
влажн.,
%
обл.,
%
осадки,
мм/ч
давл.,
гПа
погр.,
м
4 декабря, сб
сб423:00−4зюз5128661 0.2 1009814
02:00−4з4118870 0.1 1012783
05:00−4зюз398897 0.1 1014455
08:00−3ю2594100 0.1 1015149
11:00−1ю31195100 0.2 1013660
14:00+1ююз61597100 0.7 1010954
17:00+2юз71786100 0.9 10091051
20:00+2юз81980100 0.0 10081071
5 декабря, вс
вс523:00+2юз71783100 0.0 10081137
02:00+1юз61493100 0.1 1008965
05:000юз41096100 0.4 1008895
08:000з2798100 0.6 1008674
11:00−2з3884100 0.8 1010617
14:00−2з368192 0.0 1011945
17:00−4з378592 0.1 1012476
20:00−6зюз268999 0.0 1014213
6 декабря, пн
пн623:00−6зюз388571 0.1 1015439
02:00−9з41177100 0.1 1017616
05:00−12з3880100 0.1 1019612
08:00−13зсз388280 0.0 1020531
11:00−14зсз367871 0.0 1022458
14:00−12з357312 0.0 1022449
17:00−13з298413 0.0 1024442
20:00−14з310876 0.0 1025421
7 декабря, вт
вт723:00−15з37896 0.0 1026271
02:00−15з37885 0.0 1028241
05:00−16з310885 0.0 1029277
08:00−15з313832 0.0 1030358
11:00−14з312762 0.0 1032322
14:00−12з39690 0.0 1032388
17:00−14з26865 0.0 1034168
20:00−15зюз249120 0.0 1035115
8 декабря, ср
ср823:00−15зюз238966 0.0 103664
02:00−15зюз228798 0.0 103638
05:00−14зюз118299 0.0 103727
08:00−13юз1175100 0.0 103632
11:00−10ю1362100 0.0 1035106
14:00−7ююв2760100 0.0 1032236
17:00−7ююв31195100 1.3 1030400
20:00−5ююз31296100 1.8 1028527